Date String (YYYY-MM-DD hh:mm:ss) UTC,Instrument flags,absolute air pressure of the measurement (hPa),sample flow rate (lpm),inlet stack bypass flow (lpm),air temperature of the measurement (°C),ambient temperature measured by the external sensor (°C),aerosol sample conditioner tube jacket temperature (°C),OPC LED temperature (°C),internal box temperature (°C),relative humidity of the measurement (%),span deviation,mass concentration of particles derived from Lorenz-Mie calculation of OPC scattering (μg/m³),mass concentration of particles derived from Lorenz-Mie calculation of OPC scattering (μg/m³),mass concentration of particles derived from Lorenz-Mie calculation of OPC scattering (μg/m³)
DateTimeUTC,F1_M11,P_M11,Q1_M11,Q2_M11,T1_M11,T2_M11,T3_M11,T4_M11,T5_M11,U1_M11,ZSPAN_M11,X0_M11,X2_M11,X1_M11
2024-03-25 22:00:00,SystemResetWarning,0818.3,5.00,000.00,019.6,018.9,000.0,028.1,021.3,12.7,0000.0,0009.34,0007.85,0007.67
2024-03-25 22:01:00,SystemResetWarning,0818.3,5.00,000.00,019.6,018.9,000.0,028.1,021.3,12.7,0000.0,0009.30,0007.78,0007.60
2024-03-25 22:02:00,SystemResetWarning,0818.3,5.00,000.00,019.6,018.9,000.0,028.1,021.3,12.6,0000.0,0009.29,0007.74,0007.56
2024-03-25 22:03:00,SystemResetWarning,0818.2,4.99,000.00,019.6,018.9,000.0,028.1,021.3,12.6,0000.0,0009.26,0007.71,0007.53
2024-03-25 22:04:00,SystemResetWarning,0818.2,4.99,000.00,019.6,018.9,000.0,028.1,021.3,12.7,0000.0,0009.24,0007.69,0007.52
2024-03-25 22:05:00,SystemResetWarning,0818.2,5.01,000.00,019.6,018.9,000.0,028.1,021.3,12.6,0000.0,0009.26,0007.69,0007.51
2024-03-25 22:06:00,SystemResetWarning,0818.2,5.00,000.00,019.6,018.9,000.0,028.1,021.3,12.6,0000.0,0009.25,0007.67,0007.49
2024-03-25 22:07:00,SystemResetWarning,0818.2,5.01,000.00,019.6,018.9,000.0,028.1,021.3,12.8,0000.0,0009.19,0007.64,0007.48
2024-03-25 22:08:00,SystemResetWarning,0818.2,5.00,000.00,019.6,018.9,000.0,028.1,021.3,13.0,0000.0,0009.17,0007.62,0007.48
2024-03-25 22:09:00,SystemResetWarning,0818.3,4.99,000.00,019.6,018.9,000.0,028.1,021.3,12.8,0000.0,0009.08,0007.60,0007.45
2024-03-25 22:10:00,SystemResetWarning,0818.2,4.99,000.00,019.6,018.9,000.0,028.1,021.3,12.6,0000.0,0008.95,0007.57,0007.44
2024-03-25 22:11:00,SystemResetWarning,0818.3,5.00,000.00,019.6,018.9,000.0,028.1,021.3,12.7,0000.0,0008.93,0007.55,0007.44
2024-03-25 22:12:00,SystemResetWarning,0818.3,5.01,000.00,019.6,018.9,000.0,028.1,021.3,13.0,0000.0,0008.99,0007.59,0007.47
2024-03-25 22:13:00,SystemResetWarning,0818.3,5.00,000.00,019.6,018.8,000.0,028.1,021.3,13.0,0000.0,0009.09,0007.63,0007.50
2024-03-25 22:14:00,SystemResetWarning,0818.3,5.00,000.00,019.5,018.8,000.0,028.1,021.3,13.4,0000.0,0009.11,0007.67,0007.53
2024-03-25 22:15:00,SystemResetWarning,0818.3,5.00,000.00,019.5,018.8,000.0,028.1,021.2,13.0,0000.0,0009.24,0007.70,0007.56
2024-03-25 22:16:00,SystemResetWarning,0818.3,4.99,000.00,019.5,018.8,000.0,028.1,021.2,12.9,0000.0,0010.03,0007.70,0007.56
2024-03-25 22:17:00,SystemResetWarning,0818.3,5.00,000.00,019.5,018.7,000.0,028.1,021.2,12.9,0000.0,0010.02,0007.71,0007.58
2024-03-25 22:18:00,SystemResetWarning,0818.3,5.00,000.00,019.5,018.7,000.0,028.1,021.2,13.1,0000.0,0010.06,0007.75,0007.62
2024-03-25 22:19:00,SystemResetWarning,0818.3,5.01,000.00,019.5,018.7,000.0,028.1,021.2,13.4,0000.0,0010.21,0007.81,0007.67
2024-03-25 22:20:00,SystemResetWarning,0818.3,5.00,000.00,019.5,018.7,000.0,028.1,021.2,13.2,0000.0,0010.32,0007.89,0007.74
2024-03-25 22:21:00,SystemResetWarning,0818.3,5.00,000.00,019.5,018.7,000.0,028.1,021.2,13.1,0000.0,0010.44,0008.00,0007.83
2024-03-25 22:22:00,SystemResetWarning,0818.3,5.00,000.00,019.5,018.6,000.0,028.0,021.2,13.4,0000.0,0010.58,0008.09,0007.91
2024-03-25 22:23:00,SystemResetWarning,0818.3,5.00,000.00,019.5,018.6,000.0,028.0,021.2,13.3,0000.0,0010.60,0008.14,0007.96
2024-03-25 22:24:00,SystemResetWarning,0818.3,5.00,000.00,019.5,018.6,000.0,028.0,021.2,13.4,0000.0,0010.56,0008.17,0008.00
2024-03-25 22:25:00,SystemResetWarning,0818.3,5.00,000.00,019.5,018.6,000.0,028.0,021.2,13.5,0000.0,0010.60,0008.21,0008.05
2024-03-25 22:26:00,SystemResetWarning,0818.3,5.00,000.00,019.4,018.6,000.0,028.0,021.2,13.4,0000.0,0010.58,0008.26,0008.09
2024-03-25 22:27:00,SystemResetWarning,0818.3,4.99,000.00,019.4,018.6,000.0,028.0,021.1,13.5,0000.0,0009.88,0008.35,0008.16
2024-03-25 22:28:00,SystemResetWarning,0818.3,4.99,000.00,019.4,018.5,000.0,028.0,021.1,13.0,0000.0,0010.01,0008.40,0008.20
2024-03-25 22:29:00,SystemResetWarning,0818.3,5.00,000.00,019.4,018.5,000.0,028.0,021.1,13.1,0000.0,0010.04,0008.40,0008.19
2024-03-25 22:30:00,SystemResetWarning,0818.2,5.00,000.00,019.4,018.5,000.0,028.0,021.1,13.3,0000.0,0009.96,0008.39,0008.18
2024-03-25 22:31:00,SystemResetWarning,0818.3,5.01,000.00,019.4,018.5,000.0,028.0,021.1,13.3,0000.0,0009.93,0008.38,0008.16
2024-03-25 22:32:00,SystemResetWarning,0818.3,5.00,000.00,019.4,018.5,000.0,028.0,021.1,13.3,0000.0,0009.88,0008.36,0008.15
2024-03-25 22:33:00,SystemResetWarning,0818.2,5.00,000.00,019.4,018.5,000.0,028.0,021.1,13.3,0000.0,0009.84,0008.34,0008.14
2024-03-25 22:34:00,SystemResetWarning,0818.2,5.00,000.00,019.3,018.5,000.0,028.0,021.1,13.1,0000.0,0009.89,0008.31,0008.10
2024-03-25 22:35:00,SystemResetWarning,0818.2,5.00,000.00,019.3,018.5,000.0,028.0,021.1,13.2,0000.0,0009.90,0008.27,0008.06
2024-03-25 22:36:00,SystemResetWarning,0818.2,5.00,000.00,019.3,018.5,000.0,028.0,021.1,13.6,0000.0,0009.84,0008.22,0008.02
2024-03-25 22:37:00,SystemResetWarning,0818.2,4.99,000.00,019.3,018.5,000.0,027.9,021.0,13.4,0000.0,0009.91,0008.22,0007.99
2024-03-25 22:38:00,SystemResetWarning,0818.2,5.01,000.00,019.3,018.5,000.0,027.9,021.0,13.6,0000.0,0009.88,0008.18,0007.95
2024-03-25 22:39:00,SystemResetWarning,0818.3,5.00,000.00,019.3,018.5,000.0,027.9,021.0,13.7,0000.0,0010.06,0008.17,0007.95
2024-03-25 22:40:00,SystemResetWarning,0818.2,4.99,000.00,019.3,018.5,000.0,027.9,021.0,13.4,0000.0,0010.52,0008.18,0007.96
2024-03-25 22:41:00,SystemResetWarning,0818.2,5.00,000.00,019.3,018.5,000.0,027.9,021.0,13.2,0000.0,0010.47,0008.15,0007.95
2024-03-25 22:42:00,SystemResetWarning,0818.2,5.02,000.00,019.3,018.5,000.0,027.9,021.0,13.1,0000.0,0010.43,0008.13,0007.93
2024-03-25 22:43:00,SystemResetWarning,0818.2,4.99,000.00,019.3,018.4,000.0,027.9,021.0,13.1,0000.0,0010.39,0008.09,0007.89
2024-03-25 22:44:00,SystemResetWarning,0818.2,4.99,000.00,019.3,018.4,000.0,027.9,021.0,13.2,0000.0,0010.33,0008.05,0007.85
2024-03-25 22:45:00,SystemResetWarning,0818.2,5.00,000.00,019.3,018.4,000.0,027.9,021.0,13.1,0000.0,0010.17,0008.01,0007.82
2024-03-25 22:46:00,SystemResetWarning,0818.2,5.01,000.00,019.3,018.4,000.0,027.9,021.0,13.2,0000.0,0010.08,0007.98,0007.80
2024-03-25 22:47:00,SystemResetWarning,0818.2,5.01,000.00,019.2,018.4,000.0,027.9,021.0,13.5,0000.0,0010.05,0007.93,0007.75
2024-03-25 22:48:00,SystemResetWarning,0818.3,5.00,000.00,019.2,018.4,000.0,027.9,021.0,13.3,0000.0,0009.90,0007.85,0007.70
2024-03-25 22:49:00,SystemResetWarning,0818.3,4.99,000.00,019.2,018.4,000.0,027.8,021.0,13.4,0000.0,0009.79,0007.76,0007.63
2024-03-25 22:50:00,SystemResetWarning,0818.3,5.00,000.00,019.2,018.4,000.0,027.8,021.0,13.2,0000.0,0009.69,0007.69,0007.57
2024-03-25 22:51:00,SystemResetWarning,0818.3,5.00,000.00,019.2,018.4,000.0,027.8,020.9,13.3,0000.0,0008.95,0007.62,0007.51
2024-03-25 22:52:00,SystemResetWarning,0818.2,5.00,000.00,019.2,018.4,000.0,027.8,020.9,13.7,0000.0,0008.83,0007.56,0007.46
2024-03-25 22:53:00,SystemResetWarning,0818.3,5.00,000.00,019.2,018.4,000.0,027.8,021.0,13.5,0000.0,0008.79,0007.50,0007.40
2024-03-25 22:54:00,SystemResetWarning,0818.3,5.00,000.00,019.2,018.4,000.0,027.8,020.9,13.4,0000.0,0008.81,0007.49,0007.38
2024-03-25 22:55:00,SystemResetWarning,0818.3,5.00,000.00,019.2,018.4,000.0,027.8,020.9,13.4,0000.0,0009.30,0007.48,0007.37
2024-03-25 22:56:00,SystemResetWarning,0818.3,5.00,000.00,019.2,018.4,000.0,027.8,020.9,13.4,0000.0,0009.54,0007.46,0007.34
2024-03-25 22:57:00,SystemResetWarning,0818.3,4.99,000.00,019.2,018.4,000.0,027.8,020.9,13.4,0000.0,0009.56,0007.45,0007.32
2024-03-25 22:58:00,SystemResetWarning,0818.3,4.99,000.00,019.2,018.4,000.0,027.8,020.9,13.6,0000.0,0009.54,0007.42,0007.31
2024-03-25 22:59:00,SystemResetWarning,0818.3,5.01,000.00,019.2,018.3,000.0,027.8,020.9,13.7,0000.0,0009.54,0007.43,0007.32
